Weather History for Miles City, MT

Change the Weather History Date:

Wednesday, November 14, 2012

  Actual Average Record
Temperature  
Mean Temperature 34 °F 33 °F  
Max Temperature 43 °F 44 °F 70 °F (1999)
Min Temperature 24 °F 22 °F -11 °F (1959)
Degree Days  
Heating Degree Days 31 32  
Month to date heating degree days 415 402  
Since 1 July heating degree days 1135 1213  
Cooling Degree Days 0 0  
Month to date cooling degree days 0 0  
Year to date cooling degree days 1107 730  
Moisture  
Dew Point 26 °F    
Average Humidity 77    
Maximum Humidity 88    
Minimum Humidity 65    
Precipitation  
Precipitation T in 0.02 in 0.82 in (1964)
Month to date precipitation 0.26 0.22  
Year to date precipitation 5.95 11.98  
Sea Level Pressure  
Sea Level Pressure 30.17 in    
Wind  
Wind Speed 5 mph (South)    
Max Wind Speed 12 mph    
Max Gust Speed 13 mph    
Visibility 10 miles    
Events      
T = Trace of Precipitation, MM = Missing Value Source: NWS Daily Summary

Daily Weather History Graph

Daily Weather History Graph

Search for Another Location

Airport:

Trip Planner

Search our weather history database for the weather conditions in past years. The results will help you decide how hot, cold, wet, or windy it might be!

Date:

Astronomy

Nov. 14, 2012 Rise Set
Actual Time 7:04 AM MST 4:31 PM MST
Civil Twilight 6:31 AM MST 5:03 PM MST
Nautical Twilight 5:55 AM MST 5:40 PM MST
Astronomical Twilight 5:19 AM MST 6:15 PM MST
Moon 8:00 AM MST (11/14) 5:18 PM MST (11/14)
Length of Visible Light 10h 31m
Length of Day
9h 26m
New Moon, 1% of the Moon is Illuminated
Nov 14
New Moon
Nov 20
First Quarter
Nov 28
Full
Dec 6
Last Quarter
Dec 13
New

Hourly Weather History & Observations

Time (MST) Temp. Windchill Dew Point Humidity Pressure Visibility Wind Dir Wind Speed Gust Speed Precip Events Conditions
12:53 AM 28.0 °F 21.7 °F 23.0 °F 81% 30.17 in 10.0 mi SE 5.8 mph - N/A   Partly Cloudy
1:53 AM 25.0 °F 17.1 °F 21.9 °F 88% 30.17 in 10.0 mi SSE 6.9 mph - N/A   Clear
2:53 AM 26.1 °F 18.4 °F 21.9 °F 84% 30.17 in 10.0 mi SSE 6.9 mph - N/A   Clear
3:53 AM 26.1 °F 18.4 °F 21.9 °F 84% 30.15 in 10.0 mi SSE 6.9 mph - N/A   Clear
4:53 AM 26.1 °F 16.2 °F 21.9 °F 84% 30.14 in 10.0 mi SE 10.4 mph - N/A   Clear
5:53 AM 25.0 °F 16.3 °F 21.0 °F 85% 30.14 in 10.0 mi SSE 8.1 mph - N/A   Clear
6:53 AM 24.1 °F 16.0 °F 21.0 °F 88% 30.15 in 10.0 mi SSE 6.9 mph - N/A   Clear
7:53 AM 24.1 °F 16.0 °F 21.0 °F 88% 30.16 in 10.0 mi SSE 6.9 mph - N/A   Clear
8:53 AM 26.1 °F 18.4 °F 21.9 °F 84% 30.16 in 10.0 mi SSE 6.9 mph - N/A   Clear
9:53 AM 32.0 °F 27.5 °F 25.0 °F 75% 30.15 in 10.0 mi South 4.6 mph - N/A   Clear
10:53 AM 34.0 °F 28.0 °F 26.1 °F 73% 30.14 in 10.0 mi SSE 6.9 mph - N/A   Clear
11:53 AM 36.0 °F 32.1 °F 27.0 °F 70% 30.12 in 10.0 mi South 4.6 mph - N/A   Partly Cloudy
12:53 PM 36.0 °F 30.3 °F 28.0 °F 73% 30.11 in 10.0 mi South 6.9 mph - N/A   Clear
1:53 PM 41.0 °F 38.0 °F 30.0 °F 65% 30.10 in 10.0 mi South 4.6 mph - N/A   Clear
2:53 PM 39.9 °F 37.8 °F 30.9 °F 70% 30.11 in 10.0 mi WSW 3.5 mph - N/A   Partly Cloudy
3:53 PM 39.9 °F 36.7 °F 30.9 °F 70% 30.12 in 10.0 mi SW 4.6 mph - N/A   Clear
4:53 PM 39.9 °F - 30.0 °F 68% 30.13 in 10.0 mi Calm Calm - N/A   Partly Cloudy
5:53 PM 37.0 °F - 30.0 °F 76% 30.16 in 10.0 mi Calm Calm - N/A   Overcast
6:53 PM 37.0 °F 31.6 °F 30.0 °F 76% 30.19 in 10.0 mi WNW 6.9 mph - N/A   Overcast
7:53 PM 36.0 °F 31.1 °F 30.9 °F 82% 30.22 in 10.0 mi WNW 5.8 mph - N/A   Overcast
8:53 PM 35.1 °F 28.6 °F 28.9 °F 78% 30.23 in 10.0 mi WNW 8.1 mph - N/A   Overcast
9:53 PM 32.0 °F 24.8 °F 27.0 °F 82% 30.25 in 10.0 mi WNW 8.1 mph - N/A   Clear
10:53 PM 30.0 °F - 26.1 °F 85% 30.29 in 10.0 mi Calm Calm - N/A   Partly Cloudy
11:53 PM 33.1 °F - 27.0 °F 78% 30.30 in 10.0 mi Calm Calm - N/A   Partly Cloudy